Lincoln, IL

10:09 PM CDT on October 18, 2019 (GMT -0500)
Lincoln

Weather History for KAAA - August, 2019

Change the Weather History Date:

Thursday, August 22, 2019

  Actual Average (WUND) Record (WUND)
Temperature  
Mean Temperature 73 °F -  
Max Temperature 81 °F - - (-1)
Min Temperature 64 °F - - (-1)
Cooling Degree Days 8    
Growing Degree Days 23 (Base 50)    
Moisture  
Dew Point 68 °F    
Average Humidity 83    
Maximum Humidity 100    
Minimum Humidity 61    
Precipitation  
Precipitation 0.00 in - - ()
Sea Level Pressure  
Sea Level Pressure 29.99 in    
Wind  
Wind Speed 2 mph ()    
Max Wind Speed 9 mph    
Max Gust Speed -    
Visibility 10.0 miles    
Events Rain    
Averages and records for this station are not official NWS values.
T = Trace of Precipitation, MM = Missing Value Source: Averaged Metar Reports

Daily Weather History Graph

Daily Weather History Graph

Search for Another Location

Airport or City:

Astronomy

Aug. 22, 2019 Rise Set
Actual Time 6:15 AM CDT 7:44 PM CDT
Civil Twilight 5:46 AM CDT 8:13 PM CDT
Nautical Twilight 5:12 AM CDT 8:47 PM CDT
Astronomical Twilight 4:35 AM CDT 9:23 PM CDT
Moon 11:34 PM CDT (8/22) 12:51 PM CDT (8/22)
Length of Visible Light 14h 26m
Length of Day
13h 29m
Waning Gibbous, 59% of the Moon is Illuminated
Aug 22
Waning Gibbous
Aug 23
Last Quarter
Aug 30
New
Sep 5
First Quarter
Sep 13
Full

Hourly Weather History & Observations

Time (CDT) Temp. Heat Index Dew Point Humidity Pressure Visibility Wind Dir Wind Speed Gust Speed Precip Events Conditions
12:15 AM 73.4 °F - 70.9 °F 92% 29.99 in 10.0 mi Calm Calm - N/A   Overcast
12:35 AM 73.4 °F - 70.9 °F 92% 30.00 in 10.0 mi Calm Calm - N/A   Overcast
12:55 AM 73.6 °F - 70.9 °F 91% 30.00 in 10.0 mi Calm Calm - N/A   Overcast
1:15 AM 72.5 °F - 71.6 °F 97% 29.99 in 10.0 mi Calm Calm - N/A   Overcast
1:35 AM 72.1 °F - 71.2 °F 97% 29.98 in 10.0 mi Calm Calm - N/A   Overcast
1:55 AM 72.5 °F - 71.4 °F 96% 29.98 in 10.0 mi Calm Calm - N/A   Overcast
2:15 AM 72.0 °F - 71.6 °F 99% 29.98 in 10.0 mi Calm Calm - N/A   Overcast
2:35 AM 72.0 °F - 71.2 °F 98% 29.98 in 10.0 mi Calm Calm - N/A   Overcast
2:55 AM 72.0 °F - 71.2 °F 98% 29.98 in 10.0 mi Calm Calm - N/A   Overcast
3:15 AM 72.5 °F - 71.2 °F 96% 29.98 in 10.0 mi Calm Calm - N/A   Overcast
3:35 AM 72.5 °F - 71.4 °F 96% 29.98 in 10.0 mi Calm Calm - N/A   Overcast
3:55 AM 72.3 °F - 71.6 °F 98% 29.98 in 10.0 mi Calm Calm - N/A   Overcast
4:15 AM 71.8 °F - 71.6 °F 99% 29.97 in 10.0 mi Calm Calm - N/A   Overcast
4:55 AM 71.6 °F - 71.6 °F 100% 29.96 in 10.0 mi Calm Calm - N/A   Overcast
5:15 AM 71.1 °F - 70.9 °F 99% 29.96 in 10.0 mi Calm Calm - N/A   Scattered Clouds
5:35 AM 71.8 °F - 70.7 °F 96% 29.96 in 10.0 mi Calm Calm - N/A   Scattered Clouds
5:55 AM 71.8 °F - 70.7 °F 96% 29.95 in 10.0 mi Calm Calm - N/A   Mostly Cloudy
6:15 AM 71.4 °F - 70.7 °F 98% 29.96 in 10.0 mi North 3.5 mph - N/A Rain Light Rain
6:35 AM 71.2 °F - 70.7 °F 98% 29.97 in 10.0 mi Calm Calm - N/A   Light Drizzle
6:55 AM 71.2 °F - 70.9 °F 99% 29.98 in 10.0 mi Calm Calm - N/A   Mostly Cloudy
7:15 AM 71.2 °F - 70.7 °F 98% 29.98 in 10.0 mi Calm Calm - N/A   Overcast
7:35 AM 71.4 °F - 70.7 °F 98% 29.97 in 10.0 mi Calm Calm - N/A   Mostly Cloudy
7:55 AM 71.2 °F - 70.3 °F 97% 29.98 in 10.0 mi Calm Calm - N/A   Overcast
8:15 AM 71.6 °F - 70.2 °F 95% 29.98 in 10.0 mi North 3.5 mph - N/A   Overcast
8:35 AM 71.4 °F - 69.6 °F 94% 29.99 in 10.0 mi North 5.8 mph - N/A   Overcast
8:55 AM 71.6 °F - 69.6 °F 93% 30.00 in 10.0 mi North 3.5 mph - N/A   Overcast
9:15 AM 73.0 °F - 70.3 °F 91% 30.00 in 10.0 mi North 3.5 mph - N/A   Mostly Cloudy
9:35 AM 74.1 °F - 70.2 °F 87% 29.99 in 10.0 mi NNE 3.5 mph - N/A   Scattered Clouds
9:55 AM 74.3 °F - 70.0 °F 86% 30.00 in 10.0 mi NNE 3.5 mph - N/A   Overcast
10:35 AM 75.6 °F - 70.2 °F 83% 30.01 in 10.0 mi NNE 3.5 mph - N/A   Overcast
10:55 AM 76.6 °F - 70.5 °F 81% 30.01 in 10.0 mi North 4.6 mph - N/A   Mostly Cloudy
11:15 AM 76.5 °F - 70.3 °F 81% 30.01 in 10.0 mi North 5.8 mph - N/A   Scattered Clouds
11:35 AM 76.3 °F - 70.2 °F 81% 30.01 in 10.0 mi NE 3.5 mph - N/A   Scattered Clouds
11:55 AM 76.5 °F - 70.5 °F 82% 30.02 in 10.0 mi Calm Calm - N/A   Scattered Clouds
12:15 PM 77.0 °F - 69.8 °F 78% 30.02 in 10.0 mi NNE 4.6 mph - N/A   Mostly Cloudy
12:35 PM 77.2 °F - 69.8 °F 78% 30.01 in 10.0 mi Calm Calm - N/A   Overcast
12:55 PM 77.5 °F - 68.5 °F 74% 30.01 in 10.0 mi North 3.5 mph - N/A   Overcast
1:15 PM 77.4 °F - 69.1 °F 76% 30.01 in 10.0 mi North 4.6 mph - N/A   Overcast
1:35 PM 78.1 °F - 67.8 °F 71% 30.00 in 10.0 mi NNE 3.5 mph - N/A   Scattered Clouds
1:55 PM 78.3 °F - 68.5 °F 72% 30.00 in 10.0 mi NNE 4.6 mph - N/A   Scattered Clouds
2:15 PM 79.0 °F - 66.9 °F 66% 29.99 in 10.0 mi NNE 4.6 mph - N/A   Scattered Clouds
2:35 PM 79.9 °F - 66.6 °F 64% 29.99 in 10.0 mi North 8.1 mph - N/A   Clear
2:55 PM 80.6 °F 82.8 °F 66.6 °F 62% 29.98 in 10.0 mi NNE 8.1 mph - N/A   Clear
3:15 PM 79.7 °F - 66.6 °F 64% 29.98 in 10.0 mi North 3.5 mph - N/A   Clear
3:35 PM 80.8 °F 83.2 °F 67.3 °F 63% 29.98 in 10.0 mi North 3.5 mph - N/A   Clear
3:55 PM 81.0 °F 83.3 °F 66.7 °F 62% 29.98 in 10.0 mi ENE 5.8 mph - N/A   Mostly Cloudy
4:15 PM 80.6 °F 82.7 °F 65.8 °F 61% 29.97 in 10.0 mi NNE 6.9 mph - N/A   Scattered Clouds
4:35 PM 80.8 °F 83.1 °F 66.7 °F 62% 29.98 in 10.0 mi NNE 6.9 mph - N/A   Scattered Clouds
4:55 PM 80.6 °F 82.8 °F 66.4 °F 62% 29.98 in 10.0 mi North 5.8 mph - N/A   Clear
5:15 PM 79.7 °F - 65.1 °F 61% 29.98 in 10.0 mi North 6.9 mph - N/A   Clear
5:35 PM 80.2 °F 82.5 °F 66.4 °F 63% 29.98 in 10.0 mi North 5.8 mph - N/A   Clear
5:55 PM 79.7 °F - 65.1 °F 61% 29.98 in 10.0 mi North 6.9 mph - N/A   Clear
6:15 PM 78.8 °F - 64.8 °F 62% 29.98 in 10.0 mi North 5.8 mph - N/A   Clear
6:35 PM 77.9 °F - 65.3 °F 65% 29.98 in 10.0 mi North 4.6 mph - N/A   Clear
6:55 PM 76.3 °F - 65.7 °F 70% 29.97 in 10.0 mi North 4.6 mph - N/A   Clear
7:15 PM 74.3 °F - 65.7 °F 74% 29.98 in 10.0 mi North 3.5 mph - N/A   Clear
7:55 PM 73.4 °F - 65.7 °F 77% 29.98 in 10.0 mi Calm Calm - N/A   Clear
8:15 PM 71.4 °F - 65.5 °F 81% 29.99 in 10.0 mi North 3.5 mph - N/A   Clear
8:35 PM 70.3 °F - 65.3 °F 84% 30.00 in 10.0 mi North 3.5 mph - N/A   Clear
8:55 PM 69.4 °F - 64.6 °F 84% 30.00 in 10.0 mi North 3.5 mph - N/A   Clear
9:15 PM 69.1 °F - 64.2 °F 84% 30.00 in 10.0 mi North 4.6 mph - N/A   Clear
9:35 PM 68.4 °F - 63.7 °F 85% 30.02 in 10.0 mi North 4.6 mph - N/A   Clear
9:55 PM 68.7 °F - 63.9 °F 84% 30.03 in 10.0 mi NE 5.8 mph - N/A   Clear
10:15 PM 68.0 °F - 63.7 °F 86% 30.03 in 10.0 mi NE 6.9 mph - N/A   Clear
10:35 PM 67.6 °F - 63.1 °F 85% 30.03 in 10.0 mi NE 9.2 mph - N/A   Clear
10:55 PM 67.5 °F - 62.8 °F 85% 30.04 in 10.0 mi NE 8.1 mph - N/A   Clear
11:15 PM 66.6 °F - 62.6 °F 87% 30.05 in 10.0 mi NE 8.1 mph - N/A   Clear
11:35 PM 65.8 °F - 61.7 °F 86% 30.05 in 10.0 mi NE 5.8 mph - N/A   Clear
11:55 PM 64.9 °F - 61.3 °F 88% 30.05 in 10.0 mi NE 3.5 mph - N/A   Clear